This demonstration page uses our WeatherBlox Daily Observations layout. Learn more.

Hourly Observations for July 31, 2017

Temp ( °F °C ) Dew Point ( °F °C ) Humidity (%) Winds ( mph kmh ) Pressure ( in mb ) Visibility ( mi km ) Precip ( " mm )
12:53 am 00:53 Clear 64 17.8 63 17.2 96 96 Calm 30.16 1021 10 16.0934 0 0
1:53 am 01:53 Clear 63 17.2 62 16.7 97 97 Calm 30.16 1021 10 16.0934 0 0
2:53 am 02:53 Clear 63 17.2 62 16.7 97 97 Calm 30.15 1021 10 16.0934 0 0
3:53 am 03:53 Clear 62 16.7 62 16.7 100 100 Calm 30.15 1021 10 16.0934 0 0
4:53 am 04:53 Clear with Mist and Fog 60 15.6 60 15.6 100 100 Calm 30.15 1021 3 4.82802 0 0
5:53 am 05:53 Clear 60 15.6 60 15.6 100 100 Calm 30.16 1021 10 16.0934 0 0
6:53 am 06:53 Sunny 60 15.6 60 15.6 100 100 Calm 30.17 1022 7 11.26538 0 0
7:53 am 07:53 Sunny 66 18.9 64 17.8 93 93 Calm 30.19 1022 10 16.0934 0 0
8:53 am 08:53 Sunny 72 22.2 64 17.8 76 76 Calm 30.2 1023 10 16.0934 0 0
9:53 am 09:53 Sunny 75 23.9 62 16.7 64 64 Calm 30.21 1023 10 16.0934 0 0
10:53 am 10:53 Sunny 78 25.6 63 17.2 60 60 Calm 30.2 1023 10 16.0934 0 0
11:53 am 11:53 Sunny 82 27.8 62 16.7 51 51 VRB 3 6 30.2 1023 10 16.0934 0 0
12:53 pm 12:53 Sunny 84 28.9 62 16.7 48 48 undefined N/A 30.19 1022 10 16.0934 0 0
1:53 pm 13:53 Sunny 85 29.4 61 16.1 45 45 VRB 5 7 30.16 1022 10 16.0934 0 0
2:53 pm 14:53 Partly Cloudy 87 30.6 62 16.7 43 43 N 5 7 30.15 1021 10 16.0934 0 0
3:53 pm 15:53 Sunny 87 30.6 61 16.1 42 42 ENE 3 6 30.14 1021 10 16.0934 0 0
4:53 pm 16:53 Mostly Cloudy 88 31.1 62 16.7 42 42 ENE 8 13 30.13 1020 10 16.0934 0 0
5:53 pm 17:53 Mostly Cloudy 86 30 62 16.7 45 45 VRB 3 6 30.12 1020 10 16.0934 0 0
6:53 pm 18:53 Partly Cloudy 84 28.9 62 16.7 48 48 ENE 6 9 30.11 1020 10 16.0934 0 0
7:53 pm 19:53 Partly Cloudy 80 26.7 64 17.8 58 58 E 5 7 30.11 1020 10 16.0934 0 0
8:53 pm 20:53 Mostly Clear 73 22.8 66 18.9 79 79 Calm 30.11 1020 10 16.0934 0 0
9:53 pm 21:53 Clear 69 20.6 65 18.3 87 87 Calm 30.12 1020 10 16.0934 0 0
10:53 pm 22:53 Clear 67 19.4 64 17.8 91 91 Calm 30.14 1021 10 16.0934 0 0
11:53 pm 23:53 Clear 66 18.9 64 17.8 93 93 Calm 30.12 1020 10 16.0934 0 0

Powered by AerisWeather